If you wish to contribute or participate in the discussions about articles you are invited to join SKYbrary as a registered user

 Actions

Tobías Bolaños International Airport

From SKYbrary Wiki

MRPV /
Revision as of 12:19, 27 July 2018 by Editor1 (talk | contribs)
(diff) ← Older revision | Latest revision (diff) | Newer revision → (diff)
Airport
ICAO: MRPV – IATA: SYQ
Summary
Name Tobías Bolaños International Airport
Region South America and Caribbean
Territory Costa Rica CR.gif
Location San José, Alajuela Province
Serving San José
Elevation 1,001.878 m
3,287 ft1,001.878 m
Coordinates 9° 57' 26.82" N, 84° 8' 25.21" W
Runways
Designator Length Width Surface ROPS
9/27 1600 m5,249.344 ft
18 m59.055 ft
ASP /


METAR
Observation MRPV 200000Z 11008KT 9999 FEW040 OVC120 21/17 A3004 NOSIG
Station Tobias Bolanos International
Date/Time 20 November 2019 00:00:00
Wind direction 110°
Wind speed 08 kts
Lowest cloud amount few clouds
Temperature 21°C
Dew point 17°C
Humidity 77%
QNH hPa
Weather condition n/a

Tobías Bolaños International Airport is an international airport in Costa Rica and the secondary airport serving the city capital of San José after Juan Santamaría International Airport.

Climatology

Tropical savannah climate (Köppen climate classification Aw)

Maps

Terrain

Loading map...

Airport Layout

Loading map...


Accidents & Serious Incidents at or in vicinity of MRPV

None on SKYbrary